Flag for Iceland Weather past 2 weeks in Keflavík, Iceland

Now
37 °F

Rain. Mostly cloudy.


Feels Like: 25 °F
Forecast: 33 / 38 °F
Wind: 31 mph from Southeast

Location: Keflavikurflugvollur

Current Time: Mar 6, 2015 at 9:49:26 AM

Latest Report: Mar 6, 2015 at 9:30 AM


Visibility: 2 mi

Pressure: 28.41 "Hg

Humidity: 93%

Dew point: 36 °F

Location of KeflavíkLocation

Historic Weather in Keflavík — Graph

°F

Keflavík temperature yesterday

Maximum temperature yesterday: 39 °F (at 2:00 AM)
Minimum temperature yesterday: 30 °F (at 11:30 AM)
Average temperature yesterday: 35 °F

Past Weeks' High & Low Weather Summary

 TemperatureHumidityPressure
High41 °F (Mar 4, 4:30 PM)100% (Feb 19, 9:30 AM)29.77 "Hg (Feb 19, 9:30 AM)
Low18 °F (Feb 21, 6:30 AM)51% (Mar 3, 3:00 PM)28.03 "Hg (Feb 26, 5:00 AM)
Average30 °F79%29.04 "Hg
* Reported Feb 19 8:00 AM — Mar 6 8:30 AM, Keflavík, Weather by CustomWeather, © 2015

Note: Actual official high and low records may vary slightly from our data, if they occured in-between our weather recording intervals... More about our weather records

Advertising

Keflavík weather history for previous 24 hours

 ConditionsComfort  
Time TempWeatherWind HumidityBarometerVisibility
8:30 AM
Fri, Mar 6
37 °FRain. Cloudy.41 mph93%28.47 "Hg4 mi
8:00 AM37 °FRain. Partly cloudy.39 mph93%28.53 "Hg4 mi
7:30 AM37 °FRain. Passing clouds.41 mph93%28.59 "Hg4 mi
7:00 AM37 °FRain showers. Partly cloudy.38 mph93%28.65 "Hg4 mi
6:30 AM39 °FRain showers. Partly cloudy.38 mph87%28.71 "HgN/A
6:00 AM39 °FScattered showers. Passing clouds.29 mph81%28.80 "HgN/A
5:30 AM37 °FSprinkles. Partly cloudy.32 mph93%28.85 "Hg4 mi
5:00 AM39 °FScattered showers. Partly cloudy.28 mph81%28.88 "HgN/A
4:30 AM39 °FScattered showers. Partly cloudy.24 mph81%28.94 "HgN/A
4:00 AM37 °FScattered showers. Partly cloudy.23 mph81%29.00 "HgN/A
3:30 AM37 °FScattered showers. Partly cloudy.22 mph87%29.03 "HgN/A
3:00 AM34 °FRain showers. Partly cloudy.22 mph100%29.09 "HgN/A
2:30 AM36 °FSprinkles. Partly cloudy.21 mph93%29.12 "HgN/A
2:00 AM36 °FSprinkles. Passing clouds.21 mph93%29.15 "HgN/A
1:30 AM36 °FSprinkles. Partly cloudy.18 mph93%29.21 "HgN/A
1:00 AM36 °FPartly cloudy.18 mph87%29.24 "HgN/A
12:30 AM36 °FScattered showers. Partly cloudy.14 mph87%29.24 "HgN/A
12:00 AM34 °FScattered showers. Partly cloudy.17 mph93%29.27 "HgN/A
11:30 PM
Thu, Mar 5
34 °FScattered showers. Partly cloudy.14 mph87%29.30 "HgN/A
11:00 PM34 °FScattered showers. Partly cloudy.17 mph87%29.30 "HgN/A
10:30 PM34 °FScattered showers. Partly cloudy.16 mph81%29.33 "HgN/A
10:00 PM32 °FScattered showers. Passing clouds.12 mph93%29.33 "HgN/A
9:30 PM34 °FSnow flurries. Passing clouds.14 mph93%29.33 "HgN/A
9:00 PM36 °FScattered showers. Passing clouds.22 mph70%29.33 "HgN/A
8:30 PM36 °FScattered showers. Passing clouds.26 mph70%29.33 "HgN/A
8:00 PM34 °FScattered showers. Passing clouds.18 mph87%29.33 "HgN/A
7:30 PM34 °FScattered showers. Passing clouds.22 mph87%29.33 "HgN/A
7:00 PM36 °FScattered showers. Passing clouds.24 mph75%29.33 "HgN/A
6:30 PM34 °FScattered showers. Scattered clouds.30 mph81%29.33 "HgN/A
6:00 PM34 °FScattered showers. Broken clouds.22 mph93%29.30 "HgN/A
5:30 PM34 °FScattered showers. Partly sunny.20 mph93%29.30 "HgN/A
5:00 PM34 °FScattered showers. Partly sunny.24 mph87%29.30 "HgN/A
4:30 PM34 °FSnow flurries. Broken clouds.25 mph93%29.30 "Hg2 mi
4:00 PM36 °FScattered showers. Scattered clouds.28 mph75%29.27 "HgN/A
3:30 PM34 °FSnow flurries. Broken clouds.30 mph81%29.27 "Hg5 mi
3:00 PM37 °FScattered showers. Passing clouds.36 mph60%29.24 "HgN/A
2:30 PM36 °FPassing clouds.35 mph65%29.24 "HgN/A
2:00 PM36 °FScattered showers. Scattered clouds.35 mph65%29.24 "HgN/A
1:30 PM36 °FScattered showers. Broken clouds.35 mph70%29.21 "HgN/A
1:00 PM36 °FScattered showers. Broken clouds.30 mph75%29.21 "HgN/A
12:30 PM32 °FSnow flurries. Partly sunny.40 mph87%29.21 "Hg1 mi
12:00 PM36 °FScattered showers. Broken clouds.33 mph70%29.18 "HgN/A
11:30 AM30 °FSnow showers. Partly sunny.35 mph100%29.15 "Hg1 mi
11:00 AM32 °FSnow showers. Broken clouds.30 mph87%29.15 "Hg2 mi
10:30 AM36 °FScattered showers. Broken clouds.32 mph75%29.15 "Hg4 mi
10:00 AM36 °FScattered showers. Scattered clouds.30 mph75%29.12 "HgN/A
9:30 AM36 °FScattered showers. Scattered clouds.33 mph65%N/AN/A
9:00 AM36 °FScattered showers. Scattered clouds.32 mph75%29.09 "HgN/A
Weather by CustomWeather, © 2015

See weather overviewHow to use our weather pages